| time (UTC) | temp C | wind direction | speed KPH | gust KPH | rain 1hr cm | rain 24hr cm | rain mn cm | humidity % | barometer mb |
| 20260506235109 | 30 | 285 | 6.4 | 12.9 | 0.00 | 0.00 | 0.00 | 18 | 1010.6 |
| 20260506234209 | 30 | 281 | 6.4 | 16.1 | 0.00 | 0.00 | 0.00 | 18 | 1010.7 |
| 20260506233309 | 30 | 266 | 4.8 | 16.1 | 0.00 | 0.00 | 0.00 | 18 | 1010.8 |
| 20260506232409 | 29 | 236 | 4.8 | 11.3 | 0.00 | 0.00 | 0.00 | 19 | 1010.9 |
| 20260506231509 | 29 | 285 | 6.4 | 17.7 | 0.00 | 0.00 | 0.00 | 18 | 1011.0 |
| 20260506230609 | 29 | 213 | 3.2 | 11.3 | 0.00 | 0.00 | 0.00 | 18 | 1011.1 |
| 20260506225709 | 28 | 166 | 4.8 | 12.9 | 0.00 | 0.00 | 0.00 | 20 | 1011.1 |
| 20260506224809 | 28 | 196 | 6.4 | 12.9 | 0.00 | 0.00 | 0.00 | 19 | 1011.2 |
| 20260506223909 | 30 | 270 | 6.4 | 16.1 | 0.00 | 0.00 | 0.00 | 18 | 1011.3 |
| 20260506223010 | 30 | 292 | 8.0 | 16.1 | 0.00 | 0.00 | 0.00 | 18 | 1011.4 |
| 20260506222109 | 30 | 281 | 8.0 | 17.7 | 0.00 | 0.00 | 0.00 | 19 | 1011.5 |
| 20260506221209 | 30 | 304 | 6.4 | 24.1 | 0.00 | 0.00 | 0.00 | 19 | 1011.7 |
| 20260506220309 | 28 | 270 | 6.4 | 17.7 | 0.00 | 0.00 | 0.00 | 19 | 1011.8 |
| 20260506215409 | 28 | 264 | 4.8 | 22.5 | 0.00 | 0.00 | 0.00 | 19 | 1011.9 |
| 20260506214509 | 28 | 321 | 6.4 | 12.9 | 0.00 | 0.00 | 0.00 | 19 | 1012.0 |
| 20260506213609 | 28 | 314 | 9.7 | 16.1 | 0.00 | 0.00 | 0.00 | 19 | 1012.2 |
| 20260506212709 | 30 | 301 | 6.4 | 17.7 | 0.00 | 0.00 | 0.00 | 18 | 1012.3 |
| 20260506211808 | 28 | 68 | 3.2 | 12.9 | 0.00 | 0.00 | 0.00 | 19 | 1012.4 |
| 20260506210908 | 28 | 314 | 8.0 | 14.5 | 0.00 | 0.00 | 0.00 | 19 | 1012.7 |
| 20260506210009 | 28 | 317 | 9.7 | 30.6 | 0.00 | 0.00 | 0.00 | 19 | 1012.8 |
| 20260506205110 | 28 | 277 | 9.7 | 19.3 | 0.00 | 0.00 | 0.00 | 19 | 1012.9 |
| 20260506204209 | 29 | 248 | 6.4 | 20.9 | 0.00 | 0.00 | 0.00 | 19 | 1013.1 |
| 20260506203309 | 28 | 263 | 6.4 | 16.1 | 0.00 | 0.00 | 0.00 | 19 | 1013.2 |
| 20260506202409 | 27 | 299 | 8.0 | 17.7 | 0.00 | 0.00 | 0.00 | 20 | 1013.2 |
| 20260506200608 | 28 | 280 | 8.0 | 22.5 | 0.00 | 0.00 | 0.00 | 20 | 1013.4 |
| 20260506195709 | 28 | 260 | 4.8 | 11.3 | 0.00 | 0.00 | 0.00 | 21 | 1013.4 |
| 20260506194808 | 28 | 258 | 8.0 | 17.7 | 0.00 | 0.00 | 0.00 | 20 | 1013.6 |
| 20260506193908 | 28 | 246 | 6.4 | 17.7 | 0.00 | 0.00 | 0.00 | 21 | 1013.6 |
| 20260506192110 | 28 | 262 | 8.0 | 19.3 | 0.00 | 0.00 | 0.00 | 21 | 1013.9 |
| 20260506190308 | 27 | 313 | 4.8 | 17.7 | 0.00 | 0.00 | 0.00 | 22 | 1014.0 |
| 20260506185408 | 26 | 191 | 4.8 | 11.3 | 0.00 | 0.00 | 0.00 | 24 | 1014.1 |
| 20260506184509 | 26 | 182 | 4.8 | 11.3 | 0.00 | 0.00 | 0.00 | 24 | 1014.2 |
| 20260506183608 | 27 | 270 | 8.0 | 19.3 | 0.00 | 0.00 | 0.00 | 24 | 1014.4 |
| 20260506180908 | 26 | 190 | 3.2 | 12.9 | 0.00 | 0.00 | 0.00 | 26 | 1014.7 |
| 20260506175108 | 25 | 355 | 4.8 | 12.9 | 0.00 | 0.00 | 0.00 | 27 | 1014.8 |
| 20260506174208 | 25 | 303 | 4.8 | 12.9 | 0.00 | 0.00 | 0.00 | 27 | 1014.8 |
| 20260506173308 | 24 | 244 | 4.8 | 14.5 | 0.00 | 0.00 | 0.00 | 29 | 1014.9 |
| 20260506171509 | 24 | 253 | 4.8 | 11.3 | 0.00 | 0.00 | 0.00 | 28 | 1014.8 |
| 20260506170609 | 25 | 261 | 3.2 | 16.1 | 0.00 | 0.00 | 0.00 | 28 | 1014.8 |
| 20260506164809 | 23 | 303 | 4.8 | 9.7 | 0.00 | 0.00 | 0.00 | 29 | 1014.8 |
| 20260506163908 | 23 | 293 | 3.2 | 12.9 | 0.00 | 0.00 | 0.00 | 29 | 1014.7 |
| 20260506163008 | 23 | 172 | 4.8 | 12.9 | 0.00 | 0.00 | 0.00 | 32 | 1014.8 |
| 20260506161208 | 22 | 136 | 1.6 | 6.4 | 0.00 | 0.00 | 0.00 | 32 | 1014.7 |
| 20260506160308 | 22 | 165 | 3.2 | 6.4 | 0.00 | 0.00 | 0.00 | 33 | 1014.7 |
| 20260506152708 | 21 | 347 | 3.2 | 8.0 | 0.00 | 0.00 | 0.00 | 35 | 1014.9 |
| 20260506151808 | 21 | 73 | 3.2 | 6.4 | 0.00 | 0.00 | 0.00 | 35 | 1014.9 |
| 20260506150908 | 20 | 123 | 0.0 | 6.4 | 0.00 | 0.00 | 0.00 | 36 | 1014.9 |
| 20260506150008 | 20 | 146 | 0.0 | 1.6 | 0.00 | 0.00 | 0.00 | 38 | 1014.8 |
| 20260506145108 | 19 | 146 | 1.6 | 3.2 | 0.00 | 0.00 | 0.00 | 39 | 1014.7 |
| 20260506144208 | 18 | 146 | 1.6 | 4.8 | 0.00 | 0.00 | 0.00 | 40 | 1014.7 |
| 20260506143308 | 18 | 146 | 1.6 | 6.4 | 0.00 | 0.00 | 0.00 | 42 | 1014.6 |
| 20260506142408 | 18 | 147 | 1.6 | 6.4 | 0.00 | 0.00 | 0.00 | 43 | 1014.5 |
| 20260506141509 | 17 | 148 | 1.6 | 6.4 | 0.00 | 0.00 | 0.00 | 44 | 1014.4 |
| 20260506140608 | 17 | 145 | 1.6 | 6.4 | 0.00 | 0.00 | 0.00 | 44 | 1014.3 |
| 20260506135708 | 17 | 114 | 1.6 | 4.8 | 0.00 | 0.00 | 0.00 | 45 | 1014.2 |
| 20260506134808 | 16 | 160 | 3.2 | 9.7 | 0.00 | 0.00 | 0.00 | 45 | 1014.0 |
| 20260506133908 | 16 | 175 | 1.6 | 4.8 | 0.00 | 0.00 | 0.00 | 46 | 1013.9 |
| 20260506133008 | 16 | 175 | 0.0 | 4.8 | 0.00 | 0.00 | 0.00 | 48 | 1013.8 |
| 20260506131208 | 14 | 0 | 0.0 | 0.0 | 0.00 | 0.00 | 0.00 | 51 | 1013.6 |
| 20260506125408 | 13 | 0 | 0.0 | 0.0 | 0.00 | 0.00 | 0.00 | 52 | 1013.5 |
| 20260506124508 | 13 | 0 | 0.0 | 0.0 | 0.00 | 0.00 | 0.00 | 51 | 1013.4 |
| 20260506123608 | 13 | 0 | 0.0 | 0.0 | 0.00 | 0.00 | 0.00 | 50 | 1013.3 |
| 20260506121808 | 15 | 175 | 3.2 | 4.8 | 0.00 | 0.00 | 0.00 | 47 | 1013.0 |
| 20260506120908 | 15 | 174 | 1.6 | 4.8 | 0.00 | 0.00 | 0.00 | 46 | 1012.9 |
| 20260506120008 | 15 | 175 | 1.6 | 4.8 | 0.00 | 0.00 | 0.00 | 47 | 1012.9 |
| 20260506115108 | 15 | 175 | 3.2 | 4.8 | 0.00 | 0.00 | 0.00 | 45 | 1012.9 |
| 20260506114208 | 15 | 185 | 3.2 | 6.4 | 0.00 | 0.00 | 0.00 | 45 | 1012.9 |
| 20260506113308 | 16 | 195 | 1.6 | 6.4 | 0.00 | 0.00 | 0.00 | 45 | 1012.9 |
| 20260506112408 | 15 | 199 | 0.0 | 6.4 | 0.00 | 0.00 | 0.00 | 46 | 1012.8 |
| 20260506111508 | 15 | 0 | 0.0 | 0.0 | 0.00 | 0.00 | 0.00 | 48 | 1012.8 |
| 20260506110608 | 15 | 0 | 0.0 | 0.0 | 0.00 | 0.00 | 0.00 | 49 | 1012.7 |
| 20260506105708 | 15 | 0 | 0.0 | 0.0 | 0.00 | 0.00 | 0.00 | 49 | 1012.7 |
| 20260506103908 | 15 | 252 | 0.0 | 3.2 | 0.00 | 0.00 | 0.00 | 47 | 1012.6 |
| 20260506103008 | 15 | 252 | 1.6 | 3.2 | 0.00 | 0.00 | 0.00 | 46 | 1012.5 |
| 20260506102108 | 15 | 252 | 0.0 | 3.2 | 0.00 | 0.00 | 0.00 | 46 | 1012.4 |
| 20260506101208 | 15 | 0 | 0.0 | 0.0 | 0.00 | 0.00 | 0.00 | 47 | 1012.3 |
| 20260506100308 | 15 | 0 | 0.0 | 0.0 | 0.00 | 0.00 | 0.00 | 46 | 1012.2 |
| 20260506095408 | 15 | 0 | 0.0 | 0.0 | 0.00 | 0.00 | 0.00 | 46 | 1012.3 |
| 20260506094508 | 15 | 0 | 0.0 | 0.0 | 0.00 | 0.00 | 0.00 | 45 | 1012.2 |
| 20260506093608 | 16 | 252 | 0.0 | 1.6 | 0.00 | 0.00 | 0.00 | 45 | 1012.1 |
| 20260506092708 | 16 | 0 | 0.0 | 0.0 | 0.00 | 0.00 | 0.00 | 44 | 1012.1 |
| 20260506091808 | 16 | 0 | 0.0 | 0.0 | 0.00 | 0.00 | 0.00 | 44 | 1012.1 |
| 20260506090907 | 16 | 0 | 0.0 | 0.0 | 0.00 | 0.00 | 0.00 | 44 | 1012.1 |
| 20260506090007 | 16 | 0 | 0.0 | 0.0 | 0.00 | 0.00 | 0.00 | 42 | 1012.1 |
| 20260506085107 | 17 | 252 | 1.6 | 3.2 | 0.00 | 0.00 | 0.00 | 41 | 1012.0 |
| 20260506084207 | 17 | 250 | 4.8 | 8.0 | 0.00 | 0.00 | 0.00 | 40 | 1012.1 |
| 20260506082407 | 17 | 251 | 3.2 | 9.7 | 0.00 | 0.00 | 0.00 | 40 | 1011.9 |
| 20260506080607 | 17 | 276 | 1.6 | 6.4 | 0.00 | 0.00 | 0.00 | 40 | 1011.9 |
| 20260506073008 | 17 | 278 | 0.0 | 3.2 | 0.00 | 0.00 | 0.00 | 38 | 1011.8 |
| 20260506072109 | 17 | 278 | 0.0 | 3.2 | 0.00 | 0.00 | 0.00 | 37 | 1011.7 |
| 20260506071207 | 17 | 0 | 0.0 | 0.0 | 0.00 | 0.00 | 0.00 | 38 | 1011.7 |
| 20260506070308 | 17 | 0 | 0.0 | 0.0 | 0.00 | 0.00 | 0.00 | 37 | 1011.7 |
| 20260506061807 | 17 | 280 | 0.0 | 1.6 | 0.00 | 0.00 | 0.00 | 36 | 1011.4 |
| 20260506060907 | 17 | 280 | 0.0 | 1.6 | 0.00 | 0.00 | 0.00 | 36 | 1011.3 |
| 20260506050607 | 20 | 274 | 6.4 | 12.9 | 0.00 | 0.00 | 0.00 | 31 | 1011.0 |
| 20260506043907 | 20 | 254 | 6.4 | 12.9 | 0.00 | 0.00 | 0.00 | 30 | 1010.6 |
| 20260506043007 | 21 | 255 | 4.8 | 11.3 | 0.00 | 0.00 | 0.00 | 30 | 1010.7 |
| 20260506042107 | 20 | 255 | 6.4 | 9.7 | 0.00 | 0.00 | 0.00 | 30 | 1010.6 |
| 20260506041207 | 21 | 251 | 4.8 | 14.5 | 0.00 | 0.00 | 0.00 | 30 | 1010.5 |
| 20260506040307 | 21 | 250 | 4.8 | 12.9 | 0.00 | 0.00 | 0.00 | 29 | 1010.4 |
| 20260506035407 | 21 | 247 | 8.0 | 12.9 | 0.00 | 0.00 | 0.00 | 29 | 1010.2 |
| 20260506033608 | 21 | 264 | 8.0 | 16.1 | 0.00 | 0.00 | 0.00 | 28 | 1010.1 |
| 20260506031807 | 22 | 258 | 9.7 | 17.7 | 0.00 | 0.00 | 0.00 | 27 | 1009.8 |
| 20260506030907 | 22 | 261 | 9.7 | 17.7 | 0.00 | 0.00 | 0.00 | 27 | 1009.7 |
| 20260506030007 | 22 | 263 | 11.3 | 17.7 | 0.00 | 0.00 | 0.00 | 26 | 1009.5 |
| 20260506025107 | 22 | 265 | 11.3 | 17.7 | 0.00 | 0.00 | 0.00 | 26 | 1009.4 |
| 20260506024208 | 22 | 266 | 12.9 | 19.3 | 0.00 | 0.00 | 0.00 | 26 | 1009.3 |
| 20260506023307 | 22 | 264 | 11.3 | 19.3 | 0.00 | 0.00 | 0.00 | 26 | 1009.2 |
| 20260506022408 | 22 | 263 | 11.3 | 19.3 | 0.00 | 0.00 | 0.00 | 26 | 1009.0 |
| 20260506021508 | 22 | 263 | 12.9 | 19.3 | 0.00 | 0.00 | 0.00 | 26 | 1008.8 |
| 20260506020607 | 23 | 259 | 12.9 | 25.7 | 0.00 | 0.00 | 0.00 | 26 | 1008.7 |
| 20260506015707 | 23 | 258 | 12.9 | 22.5 | 0.00 | 0.00 | 0.00 | 26 | 1008.7 |
| 20260506013907 | 23 | 269 | 14.5 | 25.7 | 0.00 | 0.00 | 0.00 | 25 | 1008.5 |
| 20260506012107 | 24 | 275 | 14.5 | 24.1 | 0.00 | 0.00 | 0.00 | 25 | 1008.4 |
| 20260506004507 | 25 | 280 | 16.1 | 27.4 | 0.00 | 0.00 | 0.00 | 24 | 1008.1 |
| 20260506003607 | 25 | 273 | 14.5 | 27.4 | 0.00 | 0.00 | 0.00 | 23 | 1008.2 |
| 20260506002707 | 25 | 281 | 9.7 | 24.1 | 0.00 | 0.00 | 0.00 | 25 | 1008.0 |
| 20260506001807 | 25 | 245 | 9.7 | 19.3 | 0.00 | 0.00 | 0.00 | 25 | 1008.0 |
| 20260506000907 | 25 | 246 | 14.5 | 29.0 | 0.00 | 0.00 | 0.00 | 25 | 1007.9 |
| 20260506000007 | 26 | 268 | 14.5 | 29.0 | 0.00 | 0.00 | 0.00 | 24 | 1007.9 |